World > North America > United States > Ohio > Lucasville  

Lucasville, OH Hourly Weather Updates

Feedback E-mail the Weather

Quick Clicks

Lucasville, OH Weather Maps

°F °C°F °C
Lucasville Weather Map
UTC Time: 6/13/2024, 20:19
Your Time:

Lucasville, OH Regional Weather

Expires:202406132100;;961598
ASUS41 KCLE 132012
RWRCLE
OHIO REGIONAL WEATHER ROUNDUP
NATIONAL WEATHER SERVICE WILMINGTON, OH
400 PM EDT THU JUN 13 2024

NOTE: "FAIR" INDICATES FEW OR NO CLOUDS BELOW 12,000 FEET WITH NO
SIGNIFICANT WEATHER AND/OR OBSTRUCTIONS TO VISIBILITY.


OHZ036-037-039>041-045>050-054>059-063>069-073>076-082>088-132100-
  CENTRAL AND SOUTHEAST OHIO
  
CITY           SKY/WX    TMP DP  RH WIND       PRES   REMARKS
COLUMBUS       FAIR      87  54  32 S14       29.95S                  
OSU AIRPORT    FAIR      89  58  34 SW7G21    29.95F                  
BOLTON FIELD   SUNNY     88  55  33 SW12G23   29.97F                  
RICKENBACK AFB FAIR      87  56  34 S5G16     29.96S                  
NEWARK         FAIR      87  57  35 W13G18    29.96S                  
MARION         FAIR      83  59  44 SW13G24   29.94F                  
LANCASTER      FAIR      86  58  38 S12G17    29.97F                  
ZANESVILLE     FAIR      86  59  39 SW9       29.96F                  
NEW PHILLY     FAIR      86  59  39 SW3G17    29.96S                  
$$
  

SKY/WX - Weather  TMP - Temperature  DP - Dew Point  RH - Humidity
WIND - Wind Direction/Speed PRES - Barometric Pressure VSB - Visibility
WCI - Wind Chill Index E13G22 Wind - East Wind 13 mph/Gusts of 22 mph

Trending Headlines

Trending Entertainment Headlines

Lucasville Radar Loop

Use the map search tool if you want to place a location marker on the radar map...

Lucasville Quick Facts

National Two Day Weather Forecast


E-mail the Lucasville Weather Forecast

Voice your opinion or tell us about page issues...